sat.trackr.live / text

‹ back to catalog

STARLINK-35885

NORAD 66890 · 2025-283N

PAYLOAD ACTIVE UNKNOWN

§ Identity

Operator
Country
US
Launch date
2025-12-04
Launch site
AFWTR
Launch vehicle
Mass (kg)
RCS (m²)

Purposes: comms

External: N2YO · Heavens-Above · Gunter

§ Orbital elements

Epoch: 2026-09-20T07:42:24.172704Z

Period
93.85 min
Inclination
53.1584°
Eccentricity
0.0001327
Mean motion
15.34432854 rev/d
Perigee alt
461.7 km
Apogee alt
463.5 km
Semi-major
6,840.7 km
B*
5.8805e-4
RAAN
196.5412°
Arg perigee
104.5381°
Mean anomaly
255.5769°
Rev number
4,569

§ Raw data

STARLINK-358851 66890U 25283N   26263.32111311  .00019564  00000+0  58805-3 0  99942 66890  53.1584 196.5412 0001327 104.5381 255.5769 15.34432854 45692

JSON: /api/v1/satellites/66890 · /tle

For live sub-satellite position, see the globe view (requires WebGL).

§ Visibility from observer

Set your observer location to see the next 7 days of passes ≥ 10°. The values pass through the URL so the page stays shareable.

No JS? Fill the form by hand. The geolocation button needs JavaScript.